{"data":{"norad_id":41787,"epoch":"2026-09-19T16:39:48.190464Z","epoch_age_seconds":83903,"freshness":"FRESH","line1":"1 41787U 16059E   26262.69430776  .00000377  00000+0  73990-4 0  9996","line2":"2 41787  97.8237 257.7397 0026888 264.8211  94.9925 14.67759846533579","mean_motion":14.67759846,"eccentricity":0.0026888,"inclination_deg":97.8237,"raan_deg":257.7397,"arg_perigee_deg":264.8211,"mean_anomaly_deg":94.9925,"bstar":7.399e-5,"rev_number":53357,"period_min":98.108692912151,"perigee_km":649.28233716742,"apogee_km":687.1748728449,"semimajor_km":7046.3656050062,"source":"CELESTRAK","updated_at":"2026-09-20T09:00:33.968731Z"}}